Location: Ottawa
(45.4170°N, 75.7000°W)
Time: 10:10:10
(UTC-04:00)

Iridium 91 - Visible Passes

Search period start: 26 July 2016 00:00
Search period end: 05 August 2016 00:00
Orbit: 776 x 779 km, 86.4° (Epoch: 25 July)

Date Brightness Start Highest point End Pass type
(mag) Time Alt. Az. Time Alt. Az. Time Alt. Az.
26 Jul 7.2 21:24:14 10° NNW 21:28:56 35° W 21:33:38 10° SSW visible
28 Jul 8.4 21:59:19 10° NW 22:02:04 15° WNW 22:04:50 10° WSW visible
29 Jul 7.9 21:24:40 10° NNW 21:28:53 25° W 21:33:05 10° SW visible
01 Aug 8.3 21:25:19 10° NW 21:28:47 18° WNW 21:32:14 10° WSW visible
04 Aug 8.6 21:26:23 10° NW 21:28:38 13° WNW 21:30:53 10° W visible
